Valley City, ND

6:17 AM CST on November 17, 2019 (GMT -0600)
Valley City

Weather History for KBAC - August, 2019

Change the Weather History Date:

Monday, August 12, 2019

  Actual Average (WUND) Record (WUND)
Temperature  
Mean Temperature 60 °F -  
Max Temperature 64 °F - - (-1)
Min Temperature 55 °F - - (-1)
Degree Days  
Heating Degree Days 6    
Growing Degree Days 10 (Base 50)    
Moisture  
Dew Point 60 °F    
Average Humidity 99    
Maximum Humidity 100    
Minimum Humidity 88    
Precipitation  
Precipitation 0.00 in - - ()
Sea Level Pressure  
Sea Level Pressure 29.93 in    
Wind  
Wind Speed 7 mph (ENE)    
Max Wind Speed 13 mph    
Max Gust Speed 17 mph    
Visibility 7 miles    
Events Rain    
Averages and records for this station are not official NWS values.
T = Trace of Precipitation, MM = Missing Value Source: NWS Daily Summary

Daily Weather History Graph

Daily Weather History Graph

Search for Another Location

Airport or City:

Astronomy

Aug. 12, 2019 Rise Set
Actual Time 6:25 AM CDT 8:48 PM CDT
Civil Twilight 5:51 AM CDT 9:21 PM CDT
Nautical Twilight 5:09 AM CDT 10:03 PM CDT
Astronomical Twilight 4:20 AM CDT 10:51 PM CDT
Moon 7:28 PM CDT (8/12) 3:26 AM CDT (8/12)
Length of Visible Light 15h 30m
Length of Day
14h 22m
Waxing Gibbous, 93% of the Moon is Illuminated
Aug 12
Waxing Gibbous
Aug 15
Full
Aug 23
Last Quarter
Aug 30
New
Sep 5
First Quarter

Hourly Weather History & Observations

Time (CDT) Temp. Dew Point Humidity Pressure Visibility Wind Dir Wind Speed Gust Speed Precip Events Conditions
12:15 AM 64.4 °F 60.8 °F 88% 29.98 in 10.0 mi East 6.9 mph - N/A   Clear
12:35 AM 64.4 °F 60.8 °F 88% 29.97 in 10.0 mi East 8.1 mph - N/A   Clear
12:55 AM 62.6 °F 60.8 °F 94% 29.98 in 10.0 mi ENE 6.9 mph - N/A   Scattered Clouds
1:15 AM 62.6 °F 60.8 °F 94% 29.98 in 10.0 mi NE 6.9 mph - N/A   Overcast
1:35 AM 62.6 °F 60.8 °F 94% 29.99 in 10.0 mi NE 5.8 mph - N/A   Overcast
1:55 AM 62.6 °F 62.6 °F 100% 29.99 in 10.0 mi NE 5.8 mph - N/A   Light Drizzle
2:15 AM 62.6 °F 62.6 °F 100% 29.98 in 8.0 mi ENE 8.1 mph - N/A Rain Light Rain
2:35 AM 60.8 °F 60.8 °F 100% 29.98 in 6.0 mi ENE 5.8 mph 11.5 mph N/A Rain Light Rain
2:55 AM 60.8 °F 60.8 °F 100% 29.98 in 7.0 mi ENE 5.8 mph - N/A Rain Light Rain
3:35 AM 60.8 °F 60.8 °F 100% 29.97 in 8.0 mi ENE 9.2 mph - N/A   Light Drizzle
3:55 AM 60.8 °F 60.8 °F 100% 29.97 in 7.0 mi East 8.1 mph 13.8 mph N/A   Light Drizzle
4:15 AM 59.0 °F 59.0 °F 100% 29.95 in 5.0 mi ENE 9.2 mph - N/A Rain Light Rain
4:35 AM 59.0 °F 59.0 °F 100% 29.96 in 9.0 mi East 6.9 mph - N/A   Light Drizzle
4:55 AM 59.0 °F 59.0 °F 100% 29.96 in 3.0 mi East 4.6 mph - N/A Rain Light Rain
5:15 AM 59.0 °F 59.0 °F 100% 29.96 in 2.5 mi ENE 5.8 mph - N/A Rain Heavy Rain
5:35 AM 57.2 °F 57.2 °F 100% 29.95 in 5.0 mi ENE 8.1 mph - N/A Rain Light Rain
5:55 AM 57.2 °F 57.2 °F 100% 29.94 in 3.0 mi East 8.1 mph 16.1 mph N/A Rain Rain
6:15 AM 57.2 °F 57.2 °F 100% 29.94 in 2.0 mi ENE 9.2 mph - N/A Rain Rain
6:35 AM - - N/A% 29.93 in 3.0 mi ENE 11.5 mph 17.3 mph N/A Rain Light Rain
6:55 AM 55.4 °F 55.4 °F 100% 29.94 in 2.5 mi East 12.7 mph - N/A Rain Light Rain
7:15 AM 55.4 °F 55.4 °F 100% 29.93 in 1.2 mi East 10.4 mph - N/A Rain Light Rain
7:35 AM 55.4 °F 55.4 °F 100% 29.93 in 2.0 mi ENE 9.2 mph - N/A Rain Light Rain
7:55 AM 55.4 °F 55.4 °F 100% 29.93 in 2.5 mi ENE 8.1 mph - N/A Rain Rain
8:15 AM 55.4 °F 55.4 °F 100% 29.93 in 2.0 mi NE 5.8 mph - N/A Rain Rain
8:35 AM 57.2 °F 57.2 °F 100% 29.93 in 3.0 mi NE 6.9 mph - N/A   Light Drizzle
8:55 AM 57.2 °F 57.2 °F 100% 29.93 in 2.0 mi ENE 6.9 mph - N/A   Light Drizzle
9:15 AM 57.2 °F 57.2 °F 100% 29.92 in 10.0 mi East 6.9 mph 12.7 mph N/A   Light Drizzle
9:35 AM 59.0 °F 59.0 °F 100% 29.92 in 4.0 mi East 8.1 mph - N/A   Light Drizzle
9:55 AM 59.0 °F 59.0 °F 100% 29.92 in 8.0 mi East 9.2 mph - N/A   Overcast
10:15 AM 59.0 °F 59.0 °F 100% 29.91 in 9.0 mi East 10.4 mph - N/A   Overcast
10:35 AM 59.0 °F 59.0 °F 100% 29.91 in 4.0 mi East 8.1 mph - N/A Rain Light Rain
10:55 AM 59.0 °F 59.0 °F 100% 29.92 in 3.0 mi East 6.9 mph - N/A Rain Light Rain
11:15 AM 59.0 °F 59.0 °F 100% 29.92 in 8.0 mi ENE 6.9 mph - N/A   Light Drizzle
11:35 AM - - N/A% 29.92 in 9.0 mi ENE 9.2 mph - N/A   Overcast
11:55 AM 60.8 °F 60.8 °F 100% 29.93 in 8.0 mi NE 8.1 mph - N/A   Light Drizzle
12:15 PM 60.8 °F 60.8 °F 100% 29.93 in 7.0 mi ENE 4.6 mph - N/A   Light Drizzle
12:35 PM 60.8 °F 60.8 °F 100% 29.93 in 6.0 mi NE 6.9 mph - N/A   Light Drizzle
12:55 PM 60.8 °F 60.8 °F 100% 29.92 in 9.0 mi NE 8.1 mph - N/A   Light Drizzle
1:15 PM 60.8 °F 60.8 °F 100% 29.92 in 10.0 mi NE 10.4 mph - N/A   Overcast
1:35 PM - - N/A% 29.92 in 10.0 mi NE 9.2 mph - N/A   Overcast
1:55 PM 59.0 °F 59.0 °F 100% 29.92 in 10.0 mi NE 9.2 mph - N/A   Overcast
2:15 PM - - N/A% 29.92 in 10.0 mi ENE 9.2 mph - N/A   Overcast
2:35 PM 60.8 °F 60.8 °F 100% 29.92 in 10.0 mi NE 8.1 mph - N/A   Overcast
2:55 PM 60.8 °F 60.8 °F 100% 29.91 in 9.0 mi NE 9.2 mph - N/A   Overcast
3:15 PM 60.8 °F 60.8 °F 100% 29.91 in 10.0 mi ENE 6.9 mph - N/A   Overcast
3:35 PM 60.8 °F 60.8 °F 100% 29.91 in 10.0 mi ENE 6.9 mph - N/A   Overcast
3:55 PM 62.6 °F 62.6 °F 100% 29.91 in 10.0 mi ENE 5.8 mph - N/A   Overcast
4:15 PM 62.6 °F 62.6 °F 100% 29.90 in 10.0 mi East 9.2 mph - N/A   Overcast
4:35 PM 62.6 °F 62.6 °F 100% 29.90 in 10.0 mi ENE 6.9 mph - N/A   Overcast
4:55 PM 62.6 °F 62.6 °F 100% 29.91 in 10.0 mi NE 4.6 mph - N/A   Overcast
5:15 PM 62.6 °F 62.6 °F 100% 29.92 in 10.0 mi NNE 4.6 mph - N/A   Overcast
5:35 PM 62.6 °F 62.6 °F 100% 29.92 in 10.0 mi NE 5.8 mph - N/A   Overcast
5:55 PM 62.6 °F 62.6 °F 100% 29.92 in 10.0 mi NNE 4.6 mph - N/A   Overcast
6:15 PM 62.6 °F 62.6 °F 100% 29.92 in 9.0 mi NE 4.6 mph - N/A   Overcast
6:35 PM 62.6 °F 62.6 °F 100% 29.91 in 10.0 mi ENE 8.1 mph - N/A   Overcast
6:55 PM 62.6 °F 62.6 °F 100% 29.90 in 10.0 mi ENE 5.8 mph - N/A   Overcast
7:15 PM 62.6 °F 62.6 °F 100% 29.90 in 10.0 mi NE 5.8 mph - N/A   Overcast
7:35 PM 62.6 °F 62.6 °F 100% 29.90 in 10.0 mi NE 6.9 mph - N/A   Overcast
7:55 PM 60.8 °F 60.8 °F 100% 29.91 in 10.0 mi NNE 3.5 mph - N/A   Overcast
8:15 PM 60.8 °F 60.8 °F 100% 29.91 in 10.0 mi ENE 4.6 mph - N/A   Overcast
8:35 PM 60.8 °F 60.8 °F 100% 29.92 in 9.0 mi NE 3.5 mph - N/A   Overcast
8:55 PM 60.8 °F 60.8 °F 100% 29.92 in 9.0 mi NE 5.8 mph - N/A   Overcast
9:15 PM 60.8 °F 60.8 °F 100% 29.93 in 9.0 mi Calm Calm - N/A   Overcast
9:35 PM 60.8 °F 60.8 °F 100% 29.93 in 5.0 mi North 4.6 mph - N/A   Overcast
9:55 PM 60.8 °F 60.8 °F 100% 29.93 in 3.0 mi Calm Calm - N/A   Overcast
10:15 PM 60.8 °F 60.8 °F 100% 29.93 in 5.0 mi Calm Calm - N/A   Overcast
10:35 PM 60.8 °F 60.8 °F 100% 29.93 in 9.0 mi Calm Calm - N/A   Overcast
10:55 PM 60.8 °F 60.8 °F 100% 29.93 in 5.0 mi NE 3.5 mph - N/A   Overcast
11:15 PM 59.0 °F 59.0 °F 100% 29.93 in 8.0 mi NE 4.6 mph - N/A   Overcast
11:35 PM 59.0 °F 59.0 °F 100% 29.93 in 6.0 mi Calm Calm - N/A   Overcast
11:55 PM 59.0 °F 59.0 °F 100% 29.93 in 10.0 mi Calm Calm - N/A   Overcast